This demonstration page uses our WeatherBlox Daily Observations layout. Learn more.

Hourly Observations for November 23, 2019

Temp ( °F °C ) Dew Point ( °F °C ) Humidity (%) Winds ( mph kmh ) Pressure ( in mb ) Visibility ( mi km ) Precip ( " mm )
12:15 am 00:15 Clear 26 -3.2 26 -3.5 98 98 WSW 3 6 30.13 1020 10 16.0934 0 0
12:35 am 00:35 Clear 26 -3.3 26 -3.5 99 99 WSW 6 9 30.13 1020 10 16.0934 0 0
12:55 am 00:55 Clear 26 -3.2 26 -3.4 99 99 WSW 8 13 30.12 1020 10 16.0934 0 0
1:15 am 01:15 Clear 26 -3.1 26 -3.3 99 99 WSW 7 11 30.11 1020 10 16.0934 0 0
1:30 am 01:30 Clear 27 -3 26 -3.2 99 99 WSW 8 13 30.1 1019 10 16.0934 0 0
1:55 am 01:55 Clear 27 -2.8 26 -3.1 98 98 WSW 7 11 30.08 1019 10 16.0934 0 0
2:15 am 02:15 Clear 27 -2.8 26 -3.3 96 96 WSW 9 15 30.08 1019 10 16.0934 0 0
2:35 am 02:35 Clear 27 -2.8 26 -3.5 95 95 W 7 11 30.08 1019 10 16.0934 0 0
2:55 am 02:55 Clear 27 -3 26 -3.6 96 96 WSW 8 13 30.07 1018 10 16.0934 0 0
3:15 am 03:15 Clear 26 -3.5 25 -4 96 96 WSW 5 7 30.08 1019 10 16.0934 0 0
3:35 am 03:35 Clear 25 -3.7 24 -4.2 96 96 WSW 5 7 30.08 1019 10 16.0934 0 0
3:55 am 03:55 Clear 25 -4 24 -4.5 96 96 SW 6 9 30.07 1018 10 16.0934 0 0
4:15 am 04:15 Clear 24 -4.6 23 -5 97 97 SW 3 6 30.08 1019 10 16.0934 0 0
4:35 am 04:35 Clear 24 -4.6 23 -4.9 98 98 WSW 5 7 30.07 1018 10 16.0934 0 0
4:55 am 04:55 Clear 24 -4.5 23 -5 96 96 WSW 6 9 30.07 1018 10 16.0934 0 0
5:15 am 05:15 Clear 24 -4.5 23 -5 96 96 SW 5 7 30.06 1018 10 16.0934 0 0
5:35 am 05:35 Clear 23 -4.9 22 -5.4 96 96 W 6 9 30.06 1018 10 16.0934 0 0
5:55 am 05:55 Clear 24 -4.5 23 -5 96 96 W 8 13 30.07 1018 10 16.0934 0 0
6:15 am 06:15 Clear 23 -5 22 -5.4 97 97 WSW 7 11 30.05 1018 10 16.0934 0 0
6:35 am 06:35 Clear 23 -4.9 22 -5.3 97 97 W 8 13 30.06 1018 10 16.0934 0 0
6:55 am 06:55 Clear 23 -5 22 -5.5 96 96 W 8 13 30.07 1018 10 16.0934 0 0
7:15 am 07:15 Clear 23 -5 22 -5.5 96 96 W 8 13 30.07 1018 10 16.0934 0 0
7:35 am 07:35 Sunny 22 -5.5 21 -6 96 96 W 5 7 30.08 1019 10 16.0934 0 0
7:55 am 07:55 Sunny 25 -4.1 23 -5 94 94 W 9 15 30.06 1018 10 16.0934 0 0
8:15 am 08:15 Sunny 26 -3.6 23 -4.9 91 91 WNW 8 13 30.07 1018 10 16.0934 0 0
8:35 am 08:35 Sunny 28 -2.1 25 -3.7 89 89 WNW 8 13 30.05 1018 10 16.0934 0 0
8:55 am 08:55 Sunny 31 -0.5 27 -2.6 86 86 WNW 10 17 30.05 1018 10 16.0934 0 0
9:15 am 09:15 Sunny 32 0.2 29 -1.8 87 87 NW 10 17 30.04 1017 10 16.0934 0 0
9:35 am 09:35 Sunny 34 1 30 -1.2 85 85 NW 10 17 30.04 1017 10 16.0934 0 0
9:55 am 09:55 Sunny 37 2.5 31 -0.3 82 82 NW 9 15 30.02 1017 10 16.0934 0 0
10:15 am 10:15 Sunny 38 3.5 32 0 78 78 NW 14 22 30.02 1017 10 16.0934 0 0
10:35 am 10:35 Sunny 40 4.4 33 0.4 76 76 NW 13 20 30.02 1017 10 16.0934 0 0
10:55 am 10:55 Sunny 42 5.4 33 0.7 72 72 NW 13 20 30.01 1016 10 16.0934 0 0
11:15 am 11:15 Sunny 43 6 33 0.3 67 67 NNW 12 19 30.01 1016 10 16.0934 0 0
11:35 am 11:35 Sunny 44 6.8 33 0.7 65 65 NNW 15 24 29.99 1016 10 16.0934 0 0
11:55 am 11:55 Sunny 46 7.7 34 1 63 63 NW 17 28 29.97 1015 10 16.0934 0 0
12:15 pm 12:15 Sunny 47 8.5 33 0.8 59 59 NW 16 26 29.97 1015 10 16.0934 0 0
12:35 pm 12:35 Sunny 48 9.1 34 0.9 57 57 NW 14 22 29.95 1014 10 16.0934 0 0
12:55 pm 12:55 Sunny 50 9.9 33 0.7 53 53 NW 15 24 29.93 1014 10 16.0934 0 0
1:15 pm 13:15 Sunny 51 10.4 33 0.4 50 50 NW 16 26 29.93 1014 10 16.0934 0 0
1:35 pm 13:35 Sunny 52 10.9 32 0.2 48 48 NW 10 17 29.91 1013 10 16.0934 0 0
1:55 pm 13:55 Sunny 54 12.1 30 -1.1 40 40 NNW 13 20 29.89 1012 10 16.0934 0 0
2:15 pm 14:15 Sunny 55 12.5 29 -1.4 38 38 NW 14 22 29.89 1012 10 16.0934 0 0
2:35 pm 14:35 Sunny 55 12.8 29 -1.6 37 37 NNW 12 19 29.88 1012 10 16.0934 0 0
3:15 pm 15:15 Sunny 56 13.5 29 -1.6 35 35 NNW 9 15 29.87 1012 10 16.0934 0 0
3:35 pm 15:35 Sunny 56 13.6 29 -1.6 35 35 NW 6 9 29.88 1012 10 16.0934 0 0
3:55 pm 15:55 Sunny 56 13.6 29 -1.4 36 36 NW 3 6 29.88 1012 10 16.0934 0 0
4:15 pm 16:15 Sunny 56 13.1 30 -1.1 38 38 WNW 3 6 29.89 1012 10 16.0934 0 0
4:35 pm 16:35 Sunny 54 12 30 -0.9 41 41 W 3 6 29.9 1012 10 16.0934 0 0
4:55 pm 16:55 Sunny 52 10.9 29 -1.5 42 42 WSW 3 6 29.9 1013 10 16.0934 0 0
5:15 pm 17:15 Clear 50 10.1 29 -1.5 45 45 Calm 29.91 1013 10 16.0934 0 0
5:35 pm 17:35 Clear 49 9.2 30 -1 49 49 Calm 29.92 1013 10 16.0934 0 0
5:55 pm 17:55 Clear 47 8.1 30 -0.9 53 53 SW 6 9 29.92 1013 10 16.0934 0 0
6:15 pm 18:15 Clear 45 7.2 29 -1.6 54 54 SW 5 7 29.93 1013 10 16.0934 0 0
6:35 pm 18:35 Clear 43 6.2 28 -2 56 56 SW 6 9 29.94 1014 10 16.0934 0 0
6:55 pm 18:55 Clear 42 5.7 28 -2.3 57 57 SW 3 6 29.94 1014 10 16.0934 0 0
7:15 pm 19:15 Clear 41 5.2 28 -2.2 59 59 SW 5 7 29.95 1014 10 16.0934 0 0
7:35 pm 19:35 Clear 41 5.2 28 -2.5 58 58 SW 3 6 29.95 1014 10 16.0934 0 0
7:55 pm 19:55 Clear 42 5.3 27 -2.6 57 57 SW 5 7 29.96 1014 10 16.0934 0 0
8:15 pm 20:15 Clear 41 5 27 -3 57 57 W 7 11 29.96 1014 10 16.0934 0 0
8:35 pm 20:35 Clear 43 6.1 28 -2.5 54 54 W 10 17 29.95 1014 10 16.0934 0 0
8:55 pm 20:55 Clear 42 5.3 27 -2.6 57 57 W 10 17 29.96 1014 10 16.0934 0 0
9:15 pm 21:15 Clear 41 4.8 27 -2.7 59 59 W 9 15 29.96 1015 10 16.0934 0 0
9:35 pm 21:35 Clear 40 4.3 27 -2.8 60 60 W 9 15 29.96 1015 10 16.0934 0 0
9:55 pm 21:55 Clear 40 4.2 27 -2.7 61 61 W 9 15 29.96 1014 10 16.0934 0 0
10:15 pm 22:15 Clear 41 5.2 28 -2.5 58 58 W 12 19 29.95 1014 10 16.0934 0 0
10:35 pm 22:35 Clear 40 4.7 28 -2.5 60 60 W 9 15 29.95 1014 10 16.0934 0 0
10:55 pm 22:55 Clear 40 4.6 28 -2.5 60 60 W 9 15 29.95 1014 10 16.0934 0 0
11:15 pm 23:15 Clear 40 4.2 28 -2.4 63 63 W 9 15 29.96 1014 10 16.0934 0 0
11:35 pm 23:35 Clear 38 3.3 28 -2.5 66 66 W 9 15 29.97 1015 10 16.0934 0 0
11:55 pm 23:55 Clear 37 2.8 27 -2.7 67 67 W 9 15 29.98 1015 10 16.0934 0 0

Powered by AerisWeather